Regional Weather Roundup
Issued by NWS

Home | Current Version | Previous Version | Text Only | Print | Product List | Glossary Off
Versions: 1 2 3 4 5 6 7 8 9 10 11 12 13 14 15 16 17 18 19 20 21 22 23 24 25 26 27 28 29 30 31 32 33 34 35 36 37 38 39 40 41 42 43 44 45 46 47 48 49 50

000
ASUS43 KMKX 272000
RWRWI

WISCONSIN REGIONAL WEATHER ROUNDUP
NATIONAL WEATHER SERVICE MILWAUKEE/SULLIVAN WI
300 PM CDT MON APR 27 2015

NOTE: "FAIR" INDICATES FEW OR NO CLOUDS BELOW 12,000 FEET WITH NO
SIGNIFICANT WEATHER AND/OR OBSTRUCTIONS TO VISIBILITY.

WIZ001-002-006>008-014>016-023>028-272100-
NORTHWEST WISCONSIN

CITY           SKY/WX    TMP DP  RH WIND       PRES   REMARKS
SUPERIOR ARPT  SUNNY     65  30  26 SW3       30.18F
ASHLAND        SUNNY     61  30  31 E8        30.20S
HAYWARD        SUNNY     65  25  22 NW9       30.16F
SIREN          SUNNY     66  24  20 N9        30.18F
CUMBERLAND     SUNNY     63  28  27 NW13      30.16F
RICE LAKE      SUNNY     65  27  23 NW10G16   30.18F
CHETEK         SUNNY     64  32  30 N3        30.16F
LADYSMITH      SUNNY     65  29  26 N6G20     30.16F
EAU CLAIRE     NOT AVBL
MENOMONIE      SUNNY     66  25  20 NW12G18   30.16F
NEW RICHMOND   SUNNY     66  22  19 NW10G16   30.18F
OSCEOLA        SUNNY     66  29  25 N9        30.21S
$$

WIZ003>005-009-010-017-018-272100-
NORTH CENTRAL WISCONSIN

CITY           SKY/WX    TMP DP  RH WIND       PRES   REMARKS
MANITOWISH WTR SUNNY     57  29  34 N9G17     30.16S
ARBOR VITAE    SUNNY     62  31  30 N16       30.14S
WOODRUFF       SUNNY     62  31  30 N16       30.14S
RHINELANDER    SUNNY     62  26  25 N14G23    30.13F
EAGLE RIVER    SUNNY     60  23  24 N13       30.14S
LAND O LAKES   SUNNY     58  27  30 N14       30.15F
PHILLIPS       SUNNY     62  32  32 NW9       30.14F
TOMAHAWK       SUNNY     63  29  27 NE7G16    30.13F
MEDFORD        SUNNY     63  31  29 N12G17    30.13S
MERRILL        SUNNY     64  32  30 NE10G18   30.11F
$$

WIZ029-030-035-036-043>047-272100-
CENTRAL WISCONSIN

CITY           SKY/WX    TMP DP  RH WIND       PRES   REMARKS
WAUSAU         SUNNY     65  29  25 N8        30.09F
MOSINEE        NOT AVBL
MARSHFIELD     SUNNY     66  31  27 NW13G18   30.12F
STEVENS POINT  SUNNY     62  29  28 NW7G17    30.11F
WAUPACA        SUNNY     67  27  22 NW3       30.10F
WAUTOMA        NOT AVBL
WISC RAPIDS    SUNNY     67  28  23 N10G20    30.12F
CAMP DOUGLAS   NOT AVBL
$$

WIZ011>013-019>022-031-037>040-048>050-272100-
NORTHEAST WISCONSIN

CITY           SKY/WX    TMP DP  RH WIND       PRES   REMARKS
ANTIGO         SUNNY     61  30  31 N10       30.10F
SHAWANO        SUNNY     66  30  26 NE5       30.09F
OCONTO         SUNNY     53  35  51 E10G16    30.12S
STURGEON BAY   MOSUNNY   55  34  44 N10       30.13F
GREEN BAY      SUNNY     60  36  40 NE9       30.11F
MANITOWOC      NOT AVBL
APPLETON       MOSUNNY   63  28  27 N12G17    30.11F
CLINTONVILLE   SUNNY     64  28  25 N3        30.09F
OSHKOSH        SUNNY     59  33  37 VRB7      30.11F
$$

WIZ032>034-041-042-053>061-272100-
SOUTHWEST WISCONSIN

CITY           SKY/WX    TMP DP  RH WIND       PRES   REMARKS
LA CROSSE      SUNNY     67  33  28 NW10      30.14F
SPARTA         SUNNY     65  28  24 NW8G16    30.14F
VIROQUA        SUNNY     62  32  33 NW14      30.14F
BOSCOBEL       SUNNY     67  32  27 NW8G18    30.13F
PRAIRIE DU CHI SUNNY     63  30  29 NW8G16    30.14F
PLATTEVILLE    SUNNY     63  32  31 N14       30.13F
$$

WIZ056-057-062-063-064-067-068-272100-
SOUTH CENTRAL WISCONSIN

CITY           SKY/WX    TMP DP  RH WIND       PRES   REMARKS
REEDSBURG      SUNNY     64  35  33 N13       30.11F
BARABOO/DELLS  SUNNY     64  28  25 N8G16     30.11F
LONE ROCK      NOT AVBL
MINERAL POINT  SUNNY     64  28  25 NW12G18   30.13S
MADISON        MOSUNNY   65  33  30 N14G20    30.10F
MIDDLETON      SUNNY     65  28  24 N5        30.11F
WATERTOWN      SUNNY     60  35  39 NE9G20    30.11S
MONROE         SUNNY     63  34  34 N14G21    30.10F
JANESVILLE     MOSUNNY   64  30  27 NE14G21   30.10F
$$

WIZ051-052-058>065-066-070>072-272100-
SOUTHEAST WISCONSIN

CITY           SKY/WX    TMP DP  RH WIND       PRES   REMARKS
MILWAUKEE      MOSUNNY   48  34  58 NE16      30.15S
WAUKESHA       MOSUNNY   54  36  50 NE10      30.13S
MILWAUKEE/TIMM SUNNY     52  30  43 NE9       30.14S
RACINE         SUNNY     50  34  54 N16       30.15S
BURLINGTON     SUNNY     56  35  45 E12G17    30.11R
KENOSHA        SUNNY     54  35  48 N14G23    30.12S
FOND DU LAC    SUNNY     60  32  34 N12       30.12F
SHEBOYGAN      SUNNY     50  35  56 NE13      30.13F
WEST BEND      MOSUNNY   54  34  47 E10G17    30.11S
JUNEAU         SUNNY     59  33  37 N13G20    30.12S
$$

LSZ147-162-272100-
LAKE SUPERIOR

STATION/POSITION TIME  TEMP    WIND        PRES    WAVE
                       AIR SEA DIR/SP/G            HT/PER
                 (UTC) (F)     (DEG/KT/KT) (MB)    (FT/S)
W MID LAKE BUOY  1850   37 35  180/  6/  6 1024.8R   0
DEVILS ISLAND    1900   52     120/  4/  6 1023.2F
PORT WING        1900   44     360/  3/  4 1023.0F
SAXON HARBOR     1900   45        CALM     1023.4F
$$

LMZ867-665-643>646-272100-
LAKE MICHIGAN

STATION/POSITION TIME  TEMP    WIND        PRES    WAVE
                       AIR SEA DIR/SP/G            HT/PER
                 (UTC) (F)     (DEG/KT/KT) (MB)    (FT/S)
CHAMBERS ISLAND  1900   46      60/ 10/ 16 1020.3S
NORTHPORT PIER   1900   44     340/ 10/ 11 1020.3F
SISTER BAY       1917   56      30/  9/ 15   N/A
KEWAUNEE LAKESHO 1906   45      70/  4/  7 1019.7F
SHEBOYGAN LAKESH 1900   41      40/  7/  8 1021.6R
PORT WASHINGTON  1900   46      40/ 14/ 17 1021.0S
MILWAUKEE LAKESH 1900   42      30/  9/ 11   N/A
KENOSHA   LAKESH 1900   42      20/  8/ 12 1020.7S
$$

TC  - TEMPERATURE IN CELSIUS
VSB - VISIBILITY IN STATUTE MILES
WCI - WIND CHILL INDEX
HX  - HEAT INDEX



USA.gov is the U.S. government's official web portal to all federal, state and local government web resources and services.